STARLINK-32542, 62177

Orbit data source: Space-Track

STARLINK-32542, 62177 is a payload satellite owned by SpaceX/Seattle (US) in LEO that was launched on Sat, 30 Nov 2024 UTC via an FALCON 9 launch vehicle from the Air Force Western Test Range (AFWTR). Payload-class satellites include a variety of spacecraft equipped with specific instruments for various scientific and technological missions. These include communications satellites like Starlink; space stations such as the ISS; scientific satellites like the Hubble; Earth observation satellites from companies like Planet Labs, Umbra, and HawkEye 360; GPS; miniature CubeSats for education and research; and military/defense satellites.

Loading next visibility...
Identifier
62177, 2024-225Q
Orbit
LEO
Country
Flag of USUS
Related business
Manufacturer
SpaceX/Seattle
Mission
Operational Commercial Communications
Bus & Motor
STARLINK V2M, Unknown motor
Mass
730 kg wet, ~700 kg dry
Launch date (UTC)
2024-11-30 (1 year ago)
Launch vehicle
FALCON 9
Launch site
Air Force Western Test Range (AFWTR)
Object type
Payload
Rocket body
Debris
Shape & HBR
Box + 2 Pan, 17.7 m
Radar Cross Section
33.884 m², Large (>1 m²)

Expand to show TLE details & history
Last TLE update: 12 hours ago

TLE from 12 hours ago
0 STARLINK-32542
1 62177U 24225Q   26062.74383767  .00000396  00000-0  41005-4 0  9991
2 62177  70.0025 179.4750 0003427 281.0911  78.9862 14.98328910 68986
Epoch: 2026-03-03T17:51Z
TLE epoch observation values (Epoch: 2026-03-03T17:51:07.574Z)
Latitude
-0.00009°
Longitude
110.1749°
Altitude
574.029 km
Speed
7.574 km/s
True Right ascension
11h 57m 53s
True Declination
0° 00' 00"
Sunlit
Object was in full shadow at epoch
Visualization orbit readout
Latitude
Unknown
Longitude
Unknown
Altitude
Unknown
Speed
Unknown
Apparent Right ascension
Unknown
Apparent Declination
Unknown
Sunlit
N/A
Visualization observer readout
Local Sidereal Time
10:03:34
Azimuth
Unknown
Elevation
Unknown
Doppler factor
Unknown
Orbital elements
Apogee altitude
572.388 km
Perigee altitude
567.626 km
Semi-major axis
6,948.144 km
Eccentricity
0.00034
Inclination
70.0025°
RAAN
179.475°
Arg. of periapsis
281.0911°
True anomaly
79.02475°
Mean anomaly
78.9862°
Eccentric anomaly
79.00547°
Mean motion
3.74749 °/min
Orbital period
96.06 mins
BSTAR
0.000041005
Loading maneuver chart data...
Computing Atmospheric mass density...
Loading historical data...
Loading historical data...
Loading historical data...
Loading historical data...
Loading historical data...
Loading historical data...
Loading historical data...

Documentation

Showing up to 5 results
|